Location: *
(42.3928°N, 43.6244°E)
Time: 09:36:59
(UTC+00:00)

Daily predictions for brighter satellites

Satellite Brightness Start Highest point End
(mag) Time Altitude Azimuth Time Altitude Azimuth Time Altitude Azimuth
Meteor 2-5 Rocket 3.9 15:48:59 10° N 15:54:32 54° ENE 15:59:58 10° SSE
Okean 1 Rocket 3.6 15:50:34 10° SSW 15:54:55 65° W 15:59:15 10° N
Cosmos 2237 Rocket 2.2 15:49:47 10° SSW 15:55:23 82° ESE 16:01:03 10° NNE
STARLINK-1269 3.6 15:53:31 10° SW 15:57:30 61° SE 16:01:29 10° ENE
Cosmos 1553 Rocket 3.9 15:55:03 10° S 16:01:07 84° E 16:07:13 10° N
STARLINK-1200 3.5 15:58:10 10° SW 16:02:10 67° SE 16:06:11 10° ENE
Cosmos 2098 Rocket 4.1 15:59:20 10° NNW 16:02:43 45° W 16:06:50 10° SSW
Cosmos 2278 Rocket 2.4 15:58:12 10° NNW 16:03:53 80° WSW 16:09:32 10° SSE
ERBS 4.4 16:01:34 10° W 16:04:31 28° NW 16:07:29 10° NNE
Cosmos 1269 Rocket 4.4 16:00:54 10° S 16:05:50 42° ESE 16:10:48 10° NNE
CZ-2C R/B 4.2 16:03:51 10° ENE 16:06:17 13° E 16:08:43 10° ESE
HJ-1C 3.3 16:03:18 10° SSE 16:06:37 69° ENE 16:09:58 10° N
STARLINK-1192 3.5 16:02:46 10° SW 16:06:48 73° SE 16:10:50 10° ENE
Cosmos 1805 3.2 16:05:13 10° S 16:09:07 80° E 16:13:03 10° N
Meteor 1-24 Rocket 3.8 16:05:03 10° N 16:10:28 53° ENE 16:15:41 10° SSE
ARGOS 3.7 16:05:51 10° SE 16:10:51 40° ENE 16:15:51 10° N
STARLINK-1118 1.9 16:08:47 10° NW 16:11:00 70° NE 16:12:43 14° ESE
STARLINK-1244 3.5 16:07:31 10° SW 16:11:34 79° SE 16:15:37 10° NE
Cosmos 2315 Rocket 4.5 16:08:39 10° SSE 16:14:22 38° E 16:20:10 10° NNE
STARLINK-1108 4.4 16:11:17 10° NW 16:15:03 37° NNE 16:18:15 13° E
SeaSat 1 4.5 16:11:33 10° N 16:15:52 31° NW 16:20:11 10° WSW
STARLINK-1138 3.5 16:12:11 10° SW 16:16:14 86° SE 16:20:18 10° NE
STARLINK-1201 3.8 16:14:43 10° WSW 16:17:54 51° NNW 16:21:07 10° NE
STARLINK-1071 4.3 16:15:46 10° NW 16:19:34 39° NNE 16:22:35 15° E
STARLINK-1124 4.4 16:15:51 10° NW 16:19:47 41° NNE 16:22:54 15° E
STARLINK-1143 3.6 16:16:57 10° SW 16:21:00 88° NW 16:25:04 10° NE
CZ-4 R/B 3.9 16:18:06 10° SSW 16:21:16 24° W 16:24:27 10° NW
STARLINK-1110 4.2 16:20:15 10° NW 16:24:05 42° NNE 16:26:54 17° E
STARLINK-1066 3.2 16:22:58 10° NW 16:26:03 52° NNE 16:27:59 20° ESE
IRS-1A Rocket 4.3 16:20:49 10° SSE 16:26:24 74° ENE 16:32:09 10° N
STARLINK-1081 3.2 16:23:25 10° NW 16:26:29 52° NNE 16:28:21 21° ESE
STARLINK-1070 3.2 16:23:52 10° NW 16:26:56 52° NNE 16:28:46 21° ESE
STARLINK-1069 3.2 16:24:16 10° NW 16:27:22 53° NNE 16:29:14 21° ESE
STARLINK-1085 3.2 16:24:43 10° NW 16:27:49 54° NNE 16:29:40 21° ESE
STARLINK-1086 3.1 16:25:13 10° NW 16:28:18 54° NNE 16:30:05 22° ESE
SL-08 RB Rocket 4.3 16:24:40 11° SE 16:28:41 38° ENE 16:32:54 10° N
STARLINK-1095 3.1 16:25:40 10° NW 16:28:44 54° NNE 16:30:30 22° ESE
STARLINK-1077 3.1 16:26:06 10° NW 16:29:11 55° NNE 16:30:56 22° ESE
Cosmos 1470 3.4 16:25:49 10° SSE 16:29:17 33° E 16:32:48 10° NNE
STARLINK-1075 3.1 16:26:34 10° NW 16:29:38 55° NNE 16:31:22 22° ESE
STARLINK-1093 3.1 16:26:58 10° NW 16:30:05 56° NNE 16:31:51 23° ESE
CZ-2C R/B 3.0 16:25:18 10° SSE 16:30:20 61° ENE 16:35:09 10° N
STARLINK-1074 3.1 16:27:25 10° NW 16:30:31 57° NNE 16:32:16 23° ESE
STARLINK-1087 3.1 16:27:55 10° NW 16:31:00 57° NNE 16:32:40 23° ESE
Meteor 2-8 Rocket 4.4 16:25:05 10° S 16:31:13 80° E 16:37:23 10° N
STARLINK-1088 3.1 16:28:21 10° NW 16:31:27 58° NE 16:33:06 24° ESE
Cosmos 2369 Rocket 3.7 16:27:30 10° N 16:31:33 19° NE 16:34:13 14° E
STARLINK-1241 3.7 16:27:43 10° WSW 16:31:43 73° NW 16:35:44 10° NE
STARLINK-1115 3.1 16:28:46 10° NW 16:31:54 58° NE 16:33:35 24° ESE
STARLINK-1076 3.1 16:29:13 10° NW 16:32:20 59° NE 16:34:00 24° ESE
STARLINK-1092 3.0 16:29:40 10° NW 16:32:48 60° NE 16:34:27 24° ESE
STARLINK-1122 4.0 16:29:20 10° NW 16:33:15 47° NNE 16:35:41 21° E
STARLINK-1080 3.0 16:30:10 10° NW 16:33:15 60° NE 16:34:51 25° ESE
STARLINK-1090 3.0 16:30:36 10° NW 16:33:41 60° NNE 16:35:16 25° ESE
Meteor 1-22 Rocket 4.0 16:28:34 10° S 16:33:54 88° E 16:39:12 10° N
STARLINK-1089 3.0 16:31:03 10° NW 16:34:09 61° NE 16:35:42 26° ESE
STARLINK-1107 3.0 16:31:30 10° NW 16:34:36 62° NE 16:36:08 26° ESE
SJ-6B 3.1 16:30:45 10° SSE 16:34:40 51° ENE 16:38:40 10° N
Cosmos 304 Rocket 3.7 16:31:05 10° NNW 16:35:54 86° ENE 16:40:40 10° SSE
STARLINK-1239 3.8 16:32:17 10° WSW 16:36:18 67° NW 16:40:18 10° NE
Cosmos 1758 3.8 16:32:35 10° SSE 16:36:21 38° E 16:40:10 10° NNE
STARLINK-1126 3.9 16:33:56 10° NW 16:37:53 51° NNE 16:40:06 23° E
Resurs 01 Rocket 3.0 16:37:57 19° E 16:39:12 22° ENE 16:42:34 10° NNE
ISS -1.5 16:37:45 10° NW 16:40:08 18° N 16:42:15 11° NE
Cosmos 494 Rocket 4.4 16:35:42 10° SSW 16:40:48 67° WNW 16:45:59 10° NNE
STARLINK-1240 4.0 16:36:55 10° WSW 16:40:53 62° NNW 16:44:53 10° NE
STARLINK-1082 3.8 16:38:28 10° NW 16:42:26 54° NNE 16:44:29 26° E
Cosmos 1709 Rocket 3.9 16:36:19 10° N 16:42:32 69° E 16:48:37 10° SSE
Meteor 2-15 4.5 16:37:28 10° S 16:43:21 57° E 16:49:16 10° NNE
USA 81 4.5 16:38:13 10° N 16:43:27 66° W 16:48:39 10° S
SPOT 3 Rocket 3.9 16:39:25 15° SE 16:43:30 47° ENE 16:48:29 10° N
STARLINK-1216 4.1 16:41:33 10° WSW 16:45:31 58° NNW 16:49:30 10° NE
Cosmos 1733 3.9 16:42:53 10° SSW 16:46:34 54° W 16:50:17 10° N
STARLINK-1100 3.8 16:43:00 10° NW 16:47:00 58° NNE 16:48:51 29° E
Cosmos 1331 Rocket 4.1 16:43:24 10° NNW 16:48:35 75° WSW 16:53:41 10° SSE
STARLINK-1237 4.2 16:46:13 10° WSW 16:50:09 54° NNW 16:54:07 10° NE
Abrixas rocket 2.7 16:48:29 10° SSW 16:50:54 33° SSE 16:50:54 33° SSE
STARLINK-1083 3.7 16:47:34 10° NW 16:51:35 63° NNE 16:53:16 32° ESE
FREGAT/IRIS 3.0 16:49:50 13° S 16:52:05 54° W 16:54:47 10° NNW
STARLINK-1202 4.4 16:50:52 10° WSW 16:54:47 50° NNW 16:58:39 10° NE
Cosmos 1726 4.3 16:57:38 14° NE 16:57:38 14° NE 16:58:24 10° NE
MOS 1 Rocket 4.0 16:51:07 10° NNE 16:56:02 40° E 17:00:27 13° SSE
SL-14 R/B 3.4 16:52:03 10° N 16:56:07 80° W 17:00:02 10° S
STARLINK-1125 3.6 16:52:10 10° NW 16:56:12 68° NE 16:57:41 36° ESE
Cosmos 1943 Rocket 2.9 16:52:43 10° N 16:57:48 36° ENE 16:59:46 28° E
Ariane Rocket 3.8 16:54:56 10° S 16:59:52 51° W 17:04:49 10° NNW
STARLINK-1109 3.5 16:56:26 10° NW 17:00:29 72° NE 17:01:48 41° ESE
STARLINK-1091 3.5 17:01:05 10° NW 17:05:09 78° NE 17:06:16 46° ESE
TSX-5 4.2 17:02:31 10° NNW 17:07:47 64° ENE 17:09:05 42° ESE
SL-16 R/B 2.5 17:03:24 10° SSW 17:09:02 70° WNW 17:14:43 10° NNE
IRIDIUM 106 4.4 17:04:21 10° N 17:09:30 57° E 17:11:55 30° SSE
Cosmos 1626 Rocket 3.7 17:13:00 10° NNW 17:17:23 72° W 17:20:03 23° S
Aureole 3 3.3 17:16:24 35° S 17:18:00 76° E 17:22:48 10° N
BREEZE-M DEB (TANK) 2.4 17:12:40 10° WSW 17:18:20 62° NNW 17:19:00 46° NNE
Cosmos 1953 2.2 17:18:18 62° E 17:18:21 62° E 17:22:17 10° NNE
STARLINK-1072 3.4 17:14:28 10° NW 17:18:28 82° SW 17:19:02 64° SE
ATLAS 2AS CENTAUR R/B 4.2 17:13:16 10° NNW 17:19:27 25° NNE 17:22:50 18° ENE
USA 186 4.0 17:17:53 10° SSW 17:20:49 26° W 17:23:47 10° NW
Cosmos 2084 Rocket 4.3 17:17:45 10° NNW 17:21:55 37° NE 17:22:14 36° NE
Cosmos 1626 3.6 17:19:21 10° NNW 17:22:46 35° W 17:25:44 13° SSW
STARLINK-1096 3.4 17:18:55 10° NW 17:22:55 76° SW 17:23:19 67° SSE
H-2A R/B 3.4 17:18:52 10° SSW 17:23:50 39° W 17:28:43 10° NNW
Cosmos 1602 Rocket 3.6 17:20:28 10° N 17:24:56 78° W 17:26:44 36° S
DMSP B5D2-2 3.9 17:20:54 10° NNE 17:26:09 86° ESE 17:31:22 10° SSW
USA 234 3.5 17:20:43 10° NE 17:27:12 68° NW 17:33:41 10° WSW
STARLINK-1079 3.5 17:23:23 10° WNW 17:27:23 70° SW 17:27:36 67° SSW
Terra 4.2 17:31:51 11° NE 17:31:51 11° NE 17:32:09 10° NE
Cosmos 1603 3.8 17:30:33 50° ESE 17:30:43 50° ESE 17:36:08 10° NE
Meteor 1-16 Rocket 4.1 17:30:32 52° ESE 17:30:58 54° E 17:36:14 10° NNE
STARLINK-1102 4.5 17:27:51 10° NW 17:31:44 37° NNE 17:31:53 37° NNE
STARLINK-1116 3.6 17:27:51 10° WNW 17:31:50 64° SW 17:31:54 64° SW
Cosmos 2297 4.5 17:30:04 10° NW 17:35:32 49° WSW 17:38:57 22° S
STARLINK-1111 4.5 17:32:48 10° NW 17:36:40 40° NNE 17:36:40 40° NNE
MetOp-B 4.2 17:38:32 54° E 17:38:52 55° ENE 17:44:06 10° N
Aureole 2 Rocket 4.0 17:36:24 10° N 17:38:18 28° N 17:38:18 28° N
STARLINK-1094 4.0 17:36:51 10° WNW 17:40:31 52° WSW 17:40:31 52° WSW
STARLINK-1073 4.4 17:37:47 10° NW 17:41:27 41° NNE 17:41:27 41° NNE
Cosmos 1825 Rocket 4.0 17:40:00 10° N 17:43:32 51° NNE 17:43:32 51° NNE
STARLINK-1117 4.3 17:41:22 10° WNW 17:44:51 46° WSW 17:44:51 46° WSW
Cosmos 2184 Rocket 3.9 17:39:14 10° N 17:45:36 81° E 17:47:25 49° SSE
STARLINK-1121 4.5 17:42:45 10° NW 17:46:14 43° N 17:46:14 43° N
CZ-2C R/B 2.7 17:41:58 10° N 17:47:09 74° WNW 17:51:05 17° SSW
Cosmos 1992 Rocket 3.8 17:45:03 10° NNW 17:50:17 79° ENE 17:50:23 78° E
Meteor 2-17 Rocket 4.5 17:46:48 10° N 17:52:50 56° ENE 17:52:53 56° E
Cosmos 1758 Rocket 3.8 17:49:14 10° N 17:52:58 63° NNW 17:52:58 63° NNW
Cosmos 2251 Rocket 3.6 17:49:13 10° SSW 17:54:33 76° WNW 17:59:58 10° NNE
SL-8 R/B 4.4 17:55:33 10° WNW 18:00:04 47° N 18:00:04 47° N
Cosmos 1656 Rocket 4.4 17:55:05 10° NNW 17:59:51 40° NE 17:59:51 40° NE
Cosmos 2154 Rocket 3.9 18:00:06 10° N 18:06:30 75° E 18:06:44 74° ESE
ERS-1 Rocket 4.2 18:08:49 32° NNE 18:08:49 32° NNE 18:11:52 10° N
USA 245 4.3 18:12:26 61° N 18:12:26 61° N 18:17:08 10° NNW
Resurs 01 Rocket 2.9 18:15:31 36° W 18:15:31 36° W 18:19:33 10° NNW
Cosmos 967 Rocket 4.4 18:09:06 10° SSW 18:15:33 86° WNW 18:22:05 10° NNE
Cosmos 2369 Rocket 2.2 18:10:30 10° NNW 18:16:01 74° W 18:16:01 74° W
ISS -0.8 18:14:20 10° NW 18:15:13 16° NW 18:15:13 16° NW
Cosmos 2263 4.3 18:14:08 10° NNW 18:19:01 68° NNW 18:19:01 68° NNW
Nadezhda 1 Rocket 4.1 18:21:44 59° SW 18:22:54 73° W 18:29:19 10° N
Cosmos 1943 3.9 18:37:50 49° NNW 18:37:50 49° NNW 18:42:14 10° NNE
NOSS 3-4 (A) 4.2 18:31:57 10° NNW 18:38:31 51° NE 18:38:31 51° NE
NOSS 3-4 (C) 4.2 18:32:03 10° NNW 18:38:36 50° NE 18:38:36 50° NE
Cosmos 1943 Rocket 3.4 18:36:32 10° NW 18:41:19 34° W 18:41:19 34° W
Terra 4.1 19:10:44 21° NNW 19:10:44 21° NNW 19:12:19 10° NNW
ATLAS 2AS CENTAUR R/B 3.2 19:04:05 10° NW 19:10:15 61° NNW 19:10:15 61° NNW
COSMOS 2455 4.3 19:24:50 10° NNW 19:28:01 32° NNW 19:28:01 32° NNW
CZ-4C R/B 4.5 20:15:45 10° NNW 20:21:19 25° NE 20:21:24 25° NE
SL-16 R/B 4.5 21:36:32 23° NE 21:36:32 23° NE 21:39:42 10° N
CZ-4C R/B 4.4 22:03:39 10° NNW 22:06:33 28° NNW 22:06:33 28° NNW
CZ-2D R/B 4.5 22:11:16 10° NNE 22:12:56 19° NE 22:12:56 19° NE
Resurs 1-4 Rocket 4.5 22:16:20 10° NNE 22:17:48 18° NNE 22:17:48 18° NNE
USA 234 4.5 22:27:15 10° E 22:33:07 37° NNE 22:38:59 10° NW
Cosmos 2360 Rocket 4.1 22:45:13 10° N 22:47:51 25° N 22:47:51 25° N
SJ 16-02 4.4 23:01:36 11° ENE 23:01:36 11° ENE 23:02:02 10° ENE
Cosmos 2082 Rocket 4.5 23:15:19 14° NNW 23:15:19 14° NNW 23:17:08 10° N
SL-16 R/B 4.1 23:21:37 24° NNW 23:21:37 24° NNW 23:24:03 10° NNW
COSMOS 2428 4.4 23:32:42 10° N 23:37:45 31° NE 23:42:46 10° ESE
Cosmos 2285 Rocket 4.4 23:38:11 58° E 23:38:11 58° E 23:44:15 10° NNE
USA 267 3.4 23:35:43 10° NE 23:42:05 61° NNW 23:42:05 61° NNW
SL-4 R/B 4.5 23:44:18 20° ENE 23:44:18 20° ENE 23:45:59 10° E
Cosmos 1680 Rocket 4.3 23:40:35 10° N 23:44:58 47° NE 23:44:58 47° NE
Cosmos 2322 4.2 23:40:39 10° NNW 23:46:18 59° ENE 23:46:30 58° ENE
Meteor 1-11 Rocket 4.2 23:42:48 10° N 23:48:39 60° ENE 23:49:13 58° ESE
Cosmos 2034 Rocket 4.2 23:46:37 10° N 23:53:00 71° E 23:53:55 62° SE
